• In Österreich
  • Länderverzeichnis
  • Für 7 Tage
  • Wassertemperatur
  • Satellitenkarten
  • Wetterkarte
  • News
  • Widgets
  • user-avatar
    Anmelden

    Stündliche Wetter Simav

    Heute, 21 Juli, Samstag

    Zeit Temperatur Niederschläge Wind Luftdruck Luftfeuchtigkeit
    00:00 +20°C° 0 mm 2 m/S 688 mmHg 78%
    01:00 +20°C° 0 mm 2 m/S 688 mmHg 81%
    02:00 +19°C° 0 mm 2 m/S 688 mmHg 83%
    03:00 +20°C° 0 mm 1 m/S 688 mmHg 83%
    04:00 +19°C° 0 mm 1 m/S 688 mmHg 84%
    05:00 +19°C° 0 mm 1 m/S 688 mmHg 85%
    06:00 +21°C° 0 mm 1 m/S 689 mmHg 75%
    07:00 +23°C° 0 mm 2 m/S 689 mmHg 65%
    08:00 +24°C° 0 mm 2 m/S 689 mmHg 57%
    09:00 +26°C° 0 mm 2 m/S 689 mmHg 50%
    10:00 +28°C° 0 mm 2 m/S 690 mmHg 43%
    11:00 +29°C° 0 mm 2 m/S 690 mmHg 37%
    12:00 +30°C° 0 mm 3 m/S 690 mmHg 35%
    13:00 +31°C° 0 mm 3 m/S 690 mmHg 34%
    14:00 +31°C° 0 mm 3 m/S 690 mmHg 34%
    15:00 +32°C° 0 mm 4 m/S 690 mmHg 35%
    16:00 +32°C° 0 mm 4 m/S 690 mmHg 37%
    17:00 +32°C° 0 mm 4 m/S 690 mmHg 38%
    18:00 +29°C° 0 mm 4 m/S 690 mmHg 44%
    19:00 +27°C° 0 mm 3 m/S 690 mmHg 51%
    20:00 +26°C° 0 mm 3 m/S 690 mmHg 57%
    21:00 +25°C° 0 mm 2 m/S 690 mmHg 61%
    22:00 +24°C° 0 mm 2 m/S 690 mmHg 65%
    23:00 +23°C° 0 mm 2 m/S 690 mmHg 70%

    Morgen, 22 Juli, Sonntag

    Zeit Temperatur Niederschläge Wind Luftdruck Luftfeuchtigkeit
    00:00 +23°C° 0 mm 2 m/S 690 mmHg 72%
    01:00 +22°C° 0 mm 1 m/S 690 mmHg 75%
    02:00 +21°C° 0 mm 1 m/S 690 mmHg 77%
    03:00 +21°C° 0 mm 1 m/S 689 mmHg 78%
    04:00 +21°C° 0 mm 1 m/S 689 mmHg 80%
    05:00 +20°C° 0 mm 1 m/S 689 mmHg 81%
    06:00 +22°C° 0 mm 1 m/S 690 mmHg 73%
    07:00 +24°C° 0 mm 1 m/S 690 mmHg 64%
    08:00 +25°C° 0 mm 2 m/S 690 mmHg 55%
    09:00 +27°C° 0 mm 2 m/S 690 mmHg 49%
    10:00 +28°C° 0 mm 2 m/S 690 mmHg 42%
    11:00 +30°C° 0 mm 3 m/S 691 mmHg 35%
    12:00 +31°C° 0 mm 3 m/S 690 mmHg 32%
    13:00 +33°C° 0 mm 4 m/S 690 mmHg 30%
    14:00 +33°C° 0 mm 4 m/S 690 mmHg 27%
    15:00 +33°C° 0 mm 4 m/S 690 mmHg 28%
    16:00 +33°C° 0 mm 5 m/S 690 mmHg 28%
    17:00 +33°C° 0 mm 5 m/S 689 mmHg 29%
    18:00 +30°C° 0 mm 4 m/S 689 mmHg 34%
    19:00 +28°C° 0 mm 3 m/S 689 mmHg 38%
    20:00 +26°C° 0 mm 2 m/S 689 mmHg 43%
    21:00 +25°C° 0 mm 2 m/S 689 mmHg 45%
    22:00 +24°C° 0 mm 1 m/S 689 mmHg 47%
    23:00 +24°C° 0 mm 1 m/S 689 mmHg 49%

    übermorgen, 23 Juli, Montag

    Zeit Temperatur Niederschläge Wind Luftdruck Luftfeuchtigkeit
    00:00 +23°C° 0 mm 1 m/S 689 mmHg 50%
    01:00 +23°C° 0 mm 1 m/S 688 mmHg 51%
    02:00 +22°C° 0 mm 1 m/S 688 mmHg 51%
    03:00 +22°C° 0 mm 1 m/S 688 mmHg 51%
    04:00 +22°C° 0 mm 1 m/S 687 mmHg 52%
    05:00 +21°C° 0 mm 1 m/S 687 mmHg 52%
    06:00 +24°C° 0 mm 1 m/S 687 mmHg 47%
    07:00 +26°C° 0 mm 1 m/S 688 mmHg 42%
    08:00 +28°C° 0 mm 1 m/S 688 mmHg 37%
    09:00 +29°C° 0 mm 2 m/S 688 mmHg 33%
    10:00 +31°C° 0 mm 2 m/S 688 mmHg 30%
    11:00 +32°C° 0 mm 2 m/S 688 mmHg 27%
    12:00 +34°C° 0 mm 3 m/S 687 mmHg 25%
    13:00 +35°C° 0 mm 4 m/S 687 mmHg 23%
    14:00 +36°C° 0 mm 5 m/S 687 mmHg 21%
    15:00 +35°C° 0 mm 6 m/S 686 mmHg 22%
    16:00 +35°C° 0 mm 6 m/S 686 mmHg 23%
    17:00 +34°C° 0 mm 7 m/S 686 mmHg 24%
    18:00 +32°C° 0 mm 5 m/S 685 mmHg 29%
    19:00 +29°C° 0 mm 4 m/S 685 mmHg 34%
    20:00 +26°C° 0 mm 3 m/S 685 mmHg 40%
    21:00 +26°C° 0 mm 2 m/S 685 mmHg 42%
    22:00 +25°C° 0 mm 2 m/S 685 mmHg 44%
    23:00 +24°C° 0 mm 1 m/S 685 mmHg 47%

    24 Juli, Dienstag

    Zeit Temperatur Niederschläge Wind Luftdruck Luftfeuchtigkeit
    00:00 +24°C° 0 mm 1 m/S 685 mmHg 47%
    01:00 +23°C° 0 mm 1 m/S 684 mmHg 48%
    02:00 +22°C° 0 mm 1 m/S 684 mmHg 48%
    03:00 +22°C° 0 mm 1 m/S 683 mmHg 48%
    04:00 +22°C° 0 mm 1 m/S 683 mmHg 49%
    05:00 +22°C° 0 mm 1 m/S 683 mmHg 49%
    06:00 +23°C° 0,2 mm 2 m/S 683 mmHg 45%
    07:00 +25°C° 0,2 mm 2 m/S 684 mmHg 41%
    08:00 +27°C° 0,2 mm 3 m/S 684 mmHg 37%
    09:00 +28°C° 0 mm 4 m/S 684 mmHg 34%
    10:00 +30°C° 0 mm 5 m/S 684 mmHg 31%
    11:00 +32°C° 0 mm 6 m/S 685 mmHg 28%
    12:00 +32°C° 0 mm 6 m/S 684 mmHg 27%
    13:00 +33°C° 0 mm 6 m/S 684 mmHg 26%
    14:00 +33°C° 0 mm 6 m/S 684 mmHg 25%
    15:00 +32°C° 0 mm 6 m/S 684 mmHg 27%
    16:00 +30°C° 0 mm 6 m/S 684 mmHg 29%
    17:00 +30°C° 0 mm 5 m/S 684 mmHg 31%
    18:00 +28°C° 0,1 mm 5 m/S 684 mmHg 37%
    19:00 +27°C° 0,1 mm 4 m/S 684 mmHg 42%
    20:00 +25°C° 0,1 mm 3 m/S 684 mmHg 48%
    21:00 +24°C° 0,1 mm 2 m/S 684 mmHg 54%
    22:00 +23°C° 0,1 mm 2 m/S 684 mmHg 60%
    23:00 +22°C° 0,1 mm 1 m/S 684 mmHg 67%

    25 Juli, Mittwoch

    Zeit Temperatur Niederschläge Wind Luftdruck Luftfeuchtigkeit
    00:00 +22°C° 0 mm 1 m/S 684 mmHg 69%
    01:00 +21°C° 0 mm 1 m/S 684 mmHg 71%
    02:00 +19°C° 0 mm 0 m/S 684 mmHg 74%
    03:00 +18°C° 0 mm 0 m/S 684 mmHg 76%
    04:00 +18°C° 0 mm 0 m/S 684 mmHg 77%
    05:00 +17°C° 0 mm 0 m/S 684 mmHg 79%
    06:00 +19°C° 0 mm 0 m/S 685 mmHg 72%
    07:00 +22°C° 0 mm 1 m/S 685 mmHg 64%
    08:00 +24°C° 0 mm 1 m/S 686 mmHg 57%
    09:00 +25°C° 0 mm 1 m/S 686 mmHg 51%
    10:00 +27°C° 0 mm 1 m/S 686 mmHg 45%
    11:00 +28°C° 0 mm 2 m/S 686 mmHg 39%
    12:00 +29°C° 0 mm 2 m/S 686 mmHg 37%
    13:00 +29°C° 0 mm 2 m/S 686 mmHg 35%
    14:00 +30°C° 0 mm 2 m/S 686 mmHg 34%
    15:00 +30°C° 0,1 mm 3 m/S 686 mmHg 35%
    16:00 +30°C° 0,1 mm 3 m/S 686 mmHg 36%
    17:00 +29°C° 0,1 mm 3 m/S 686 mmHg 37%
    18:00 +28°C° 0,3 mm 3 m/S 686 mmHg 44%
    19:00 +26°C° 0,3 mm 3 m/S 686 mmHg 50%
    20:00 +25°C° 0,3 mm 3 m/S 686 mmHg 56%
    21:00 +24°C° 0 mm 2 m/S 686 mmHg 60%
    22:00 +23°C° 0 mm 2 m/S 686 mmHg 64%
    23:00 +23°C° 0 mm 2 m/S 686 mmHg 68%

    26 Juli, Donnerstag

    Zeit Temperatur Niederschläge Wind Luftdruck Luftfeuchtigkeit
    00:00 +22°C° 0 mm 1 m/S 686 mmHg 70%
    01:00 +22°C° 0 mm 1 m/S 686 mmHg 72%
    02:00 +21°C° 0 mm 1 m/S 686 mmHg 74%
    03:00 +21°C° 0 mm 1 m/S 686 mmHg 75%
    04:00 +21°C° 0 mm 1 m/S 686 mmHg 76%
    05:00 +20°C° 0 mm 1 m/S 686 mmHg 77%
    06:00 +22°C° 0 mm 1 m/S 686 mmHg 70%
    07:00 +24°C° 0 mm 1 m/S 687 mmHg 62%
    08:00 +26°C° 0 mm 1 m/S 687 mmHg 55%
    09:00 +27°C° 0,1 mm 1 m/S 687 mmHg 49%
    10:00 +29°C° 0,1 mm 1 m/S 687 mmHg 43%
    11:00 +30°C° 0,1 mm 1 m/S 687 mmHg 37%
    12:00 +31°C° 0 mm 1 m/S 687 mmHg 36%
    13:00 +31°C° 0 mm 1 m/S 687 mmHg 35%
    14:00 +31°C° 0 mm 2 m/S 687 mmHg 34%
    15:00 +31°C° 0 mm 2 m/S 687 mmHg 36%
    16:00 +30°C° 0 mm 2 m/S 687 mmHg 38%
    17:00 +30°C° 0 mm 3 m/S 687 mmHg 40%
    18:00 +28°C° 0,1 mm 2 m/S 687 mmHg 45%
    19:00 +27°C° 0,1 mm 2 m/S 687 mmHg 50%
    20:00 +26°C° 0,1 mm 2 m/S 687 mmHg 55%
    21:00 +25°C° 0,2 mm 2 m/S 687 mmHg 59%
    22:00 +24°C° 0,2 mm 1 m/S 688 mmHg 63%
    23:00 +23°C° 0,2 mm 1 m/S 688 mmHg 67%
    Mehr zeigen